Location: Larrial
(48.2758°N, 4.5331°W)
Time: 08:53:10
(UTC+00:00)

Cosmos 2221 - Pass Details

Date: 09 April 2020
Orbit: 592 x 617 km, 82.5° (Epoch: 25 May)

Event Time Altitude Azimuth Distance (km) Brightness Sun altitude
Exits shadow 23:23:27 28° 339° (NNW) 1,164 4.5 -32.4°
Drops below altitude 10° 23:25:48 10° 358° (N) 1,981 5.9 -32.5°
Sets 23:28:07 0° 5° (N) 2,887 6.9 -32.6°
